TimeCEST,TemperatureF,Dew PointF,Humidity,Sea Level PressureIn,VisibilityMPH,Wind Direction,Wind SpeedMPH,Gust SpeedMPH,PrecipitationIn,Events,Conditions,WindDirDegrees,DateUTC
12:00 AM,57.2,51.8,82,29.95,6.2,NNW,2.3,-,N/A,,Partly Cloudy,340,2013-05-21 22:00:00
12:30 AM,57.2,51.8,82,29.95,6.2,Variable,1.2,-,N/A,,Partly Cloudy,0,2013-05-21 22:30:00
1:00 AM,57.2,51.8,82,29.95,6.2,Calm,Calm,-,N/A,,Partly Cloudy,0,2013-05-21 23:00:00
1:30 AM,57.2,51.8,82,29.95,6.2,Calm,Calm,-,N/A,,Partly Cloudy,0,2013-05-21 23:30:00
2:00 AM,56,51,78,29.94,9,Calm,Calm,,,,Scattered Clouds,,2013-05-22 00:00:00
2:00 AM,57.2,51.8,82,29.95,6.2,Calm,Calm,-,N/A,,Partly Cloudy,0,2013-05-22 00:00:00
2:30 AM,57.2,53.6,88,29.92,6.2,Calm,Calm,-,N/A,,Partly Cloudy,0,2013-05-22 00:30:00
3:00 AM,57.2,53.6,88,29.92,6.2,Calm,Calm,-,N/A,,Partly Cloudy,0,2013-05-22 01:00:00
3:30 AM,57.2,53.6,88,29.92,6.2,Calm,Calm,-,N/A,,Partly Cloudy,0,2013-05-22 01:30:00
4:00 AM,57.2,53.6,88,29.89,6.2,Calm,Calm,-,N/A,,Partly Cloudy,0,2013-05-22 02:00:00
4:30 AM,57.2,53.6,88,29.89,6.2,Calm,Calm,-,N/A,,Partly Cloudy,0,2013-05-22 02:30:00
5:00 AM,59.0,53.6,82,29.89,6.2,Variable,2.3,-,N/A,,Partly Cloudy,0,2013-05-22 03:00:00
5:30 AM,59.0,50.0,72,29.89,6.2,WNW,5.8,-,N/A,,Partly Cloudy,290,2013-05-22 03:30:00
6:00 AM,59.0,51.8,77,29.89,6.2,WNW,4.6,-,N/A,,Scattered Clouds,290,2013-05-22 04:00:00
6:30 AM,59.0,51.8,77,29.89,6.2,NW,10.4,-,N/A,,Scattered Clouds,310,2013-05-22 04:30:00
7:00 AM,60.8,53.6,77,29.89,6.2,NW,12.7,26.5,N/A,,Scattered Clouds,310,2013-05-22 05:00:00
7:30 AM,60.8,53.6,77,29.89,6.2,NW,12.7,-,N/A,,Scattered Clouds,310,2013-05-22 05:30:00
8:00 AM,62,52,60,29.90,12,NW,6.9,,,,Partly Cloudy,310,2013-05-22 06:00:00
8:00 AM,62.6,53.6,72,29.89,6.2,NW,10.4,-,N/A,,Scattered Clouds,310,2013-05-22 06:00:00
8:30 AM,62.6,51.8,68,29.89,6.2,NW,18.4,-,N/A,,Partly Cloudy,310,2013-05-22 06:30:00
9:00 AM,62.6,51.8,68,29.89,6.2,NW,16.1,-,N/A,,Scattered Clouds,320,2013-05-22 07:00:00
9:30 AM,64.4,53.6,68,29.89,6.2,NW,16.1,-,N/A,,Scattered Clouds,310,2013-05-22 07:30:00
10:00 AM,66.2,53.6,64,29.89,6.2,NW,13.8,-,N/A,,Scattered Clouds,310,2013-05-22 08:00:00
10:30 AM,64.4,53.6,68,29.92,6.2,NW,15.0,-,N/A,,Scattered Clouds,320,2013-05-22 08:30:00
11:00 AM,64.4,53.6,68,29.92,6.2,NW,12.7,-,N/A,,Scattered Clouds,320,2013-05-22 09:00:00
11:30 AM,66.2,53.6,64,29.92,6.2,NW,12.7,-,N/A,,Scattered Clouds,310,2013-05-22 09:30:00
12:00 PM,68.0,53.6,60,29.92,6.2,NW,17.3,-,N/A,,Scattered Clouds,320,2013-05-22 10:00:00
12:30 PM,66.2,53.6,64,29.92,6.2,NNW,10.4,21.9,N/A,,Scattered Clouds,330,2013-05-22 10:30:00
1:00 PM,68.0,53.6,60,29.92,6.2,NNW,15.0,26.5,N/A,,Scattered Clouds,330,2013-05-22 11:00:00
1:30 PM,69.8,50.0,49,29.92,6.2,NNW,13.8,-,N/A,,Partly Cloudy,330,2013-05-22 11:30:00
2:00 PM,69,53,46,29.94,19,NW,15.0,,,,Scattered Clouds,320,2013-05-22 12:00:00
2:00 PM,69.8,51.8,53,29.92,6.2,NW,18.4,-,N/A,,Partly Cloudy,320,2013-05-22 12:00:00
2:30 PM,69.8,51.8,53,29.92,6.2,NW,16.1,-,N/A,,Partly Cloudy,310,2013-05-22 12:30:00
3:00 PM,69.8,48.2,46,29.92,6.2,NW,18.4,-,N/A,,Partly Cloudy,320,2013-05-22 13:00:00
3:30 PM,69.8,48.2,46,29.92,6.2,NNW,20.7,-,N/A,,Partly Cloudy,330,2013-05-22 13:30:00
4:00 PM,73.4,48.2,41,29.89,6.2,NW,17.3,-,N/A,,Partly Cloudy,320,2013-05-22 14:00:00
4:30 PM,73.4,46.4,38,29.89,6.2,NNW,18.4,-,N/A,,Partly Cloudy,330,2013-05-22 14:30:00
5:00 PM,73.4,46.4,38,29.89,6.2,NNW,17.3,-,N/A,,Partly Cloudy,330,2013-05-22 15:00:00
5:30 PM,71.6,53.6,53,29.89,6.2,WSW,13.8,-,N/A,,Partly Cloudy,250,2013-05-22 15:30:00
6:00 PM,69.8,53.6,56,29.89,6.2,WSW,13.8,-,N/A,,Partly Cloudy,240,2013-05-22 16:00:00
6:30 PM,69.8,53.6,56,29.89,6.2,WSW,16.1,-,N/A,,Partly Cloudy,240,2013-05-22 16:30:00
7:00 PM,69.8,53.6,56,29.86,6.2,WSW,16.1,-,N/A,,Partly Cloudy,240,2013-05-22 17:00:00
7:30 PM,68.0,53.6,60,29.86,6.2,WSW,17.3,-,N/A,,Partly Cloudy,250,2013-05-22 17:30:00
8:00 PM,67,51,45,29.88,19,WSW,20.7,,,,Scattered Clouds,250,2013-05-22 18:00:00
8:00 PM,68.0,51.8,56,29.89,6.2,WSW,20.7,-,N/A,,Partly Cloudy,250,2013-05-22 18:00:00
8:30 PM,66.2,51.8,60,29.89,6.2,WSW,15.0,-,N/A,,Partly Cloudy,250,2013-05-22 18:30:00
9:00 PM,66.2,51.8,60,29.89,6.2,WSW,11.5,-,N/A,,Partly Cloudy,250,2013-05-22 19:00:00
9:30 PM,66.2,51.8,60,29.89,6.2,WSW,12.7,-,N/A,,Partly Cloudy,240,2013-05-22 19:30:00
10:00 PM,64.4,57.2,77,29.92,6.2,SW,12.7,-,N/A,,Partly Cloudy,230,2013-05-22 20:00:00
10:30 PM,64.4,59.0,83,29.92,6.2,WSW,13.8,-,N/A,,Partly Cloudy,250,2013-05-22 20:30:00
11:00 PM,64.4,57.2,77,29.92,6.2,WSW,11.5,-,N/A,,Partly Cloudy,240,2013-05-22 21:00:00
11:30 PM,64.4,55.4,73,29.92,6.2,WSW,9.2,-,N/A,,Partly Cloudy,240,2013-05-22 21:30:00